Topeka, KS

8:15 AM CST on February 23, 2017 (GMT -0600)
Billard Municipal

Weather History for KTOP - January, 2014

Change the Weather History Date:

Friday, January 3, 2014

  Actual Average Record
Temperature  
Mean Temperature 22 °F 30 °F  
Max Temperature 40 °F 39 °F 66 °F (1997)
Min Temperature 3 °F 20 °F -17 °F (1979)
Degree Days  
Heating Degree Days 43 35  
Month to date heating degree days 138 105  
Since 1 July heating degree days 2242 2122  
Cooling Degree Days 0 0  
Month to date cooling degree days 0 0  
Year to date cooling degree days 0 0  
Moisture  
Dew Point 14 °F    
Average Humidity 62    
Maximum Humidity 76    
Minimum Humidity 48    
Precipitation  
Precipitation 0.00 in 0.03 in 1.14 in (1949)
Month to date precipitation 0.14 0.08  
Year to date precipitation 0.14 0.08  
Snow  
Snow 0.00 in 0.20 in 5.00 in (1973)
Month to date snowfall 1.5 0.5  
Year to date snowfall 1.5 0.5  
Since 1 July snowfall 5.8 7.0  
Snow Depth 1.00 in    
Sea Level Pressure  
Sea Level Pressure 30.08 in    
Wind  
Wind Speed 13 mph (SSE)    
Max Wind Speed 23 mph    
Max Gust Speed 32 mph    
Visibility 10 miles    
Events      
T = Trace of Precipitation, MM = Missing Value Source: NWS Daily Summary

Daily Weather History Graph

Daily Weather History Graph

Search for Another Location

Airport or City:

Trip Planner

Search our weather history database for the weather conditions in past years. The results will help you decide how hot, cold, wet, or windy it might be!

Date:

Astronomy

Jan. 03, 2014 Rise Set
Actual Time 7:41 AM CST 5:12 PM CST
Civil Twilight 7:11 AM CST 5:42 PM CST
Nautical Twilight 6:38 AM CST 6:15 PM CST
Astronomical Twilight 6:06 AM CST 6:48 PM CST
Moon 9:09 AM CST (1/3) 8:21 PM CST (1/3)
Length of Visible Light 10h 30m
Length of Day
9h 30m
Waxing Crescent, 8% of the Moon is Illuminated
Jan 3
Waxing Crescent
Jan 7
First Quarter
Jan 15
Full
Jan 23
Last Quarter
Jan 30
New

Hourly Weather History & Observations

Time (CST) Temp. Windchill Dew Point Humidity Pressure Visibility Wind Dir Wind Speed Gust Speed Precip Events Conditions
12:53 AM 5.0 °F -2.1 °F -2.9 °F 70% 30.50 in 10.0 mi East 3.5 mph - N/A   Clear
1:53 AM 5.0 °F -2.1 °F -2.0 °F 73% 30.48 in 10.0 mi SSE 3.5 mph - N/A   Clear
2:53 AM 6.1 °F -0.9 °F -0.9 °F 73% 30.46 in 10.0 mi SE 3.5 mph - N/A   Clear
3:53 AM 8.1 °F -4.3 °F -0.0 °F 70% 30.43 in 10.0 mi SSE 8.1 mph - N/A   Clear
4:53 AM 9.0 °F -3.2 °F -0.0 °F 67% 30.38 in 10.0 mi SE 8.1 mph - N/A   Clear
5:53 AM 10.9 °F -1.8 °F 1.0 °F 64% 30.34 in 10.0 mi SE 9.2 mph - N/A   Clear
6:53 AM 12.9 °F 1.6 °F 3.9 °F 67% 30.32 in 10.0 mi SE 8.1 mph - N/A   Clear
7:53 AM 14.0 °F 2.0 °F 5.0 °F 67% 30.28 in 10.0 mi SSE 9.2 mph - N/A   Clear
8:53 AM 18.0 °F 4.8 °F 8.1 °F 65% 30.25 in 9.0 mi South 12.7 mph - N/A   Clear
9:53 AM 23.0 °F 11.1 °F 12.0 °F 63% 30.23 in 10.0 mi South 12.7 mph - N/A   Clear
10:53 AM 28.0 °F 16.5 °F 15.1 °F 58% 30.19 in 10.0 mi South 15.0 mph 24.2 mph N/A   Clear
11:53 AM 33.1 °F 22.6 °F 18.0 °F 54% 30.10 in 10.0 mi South 16.1 mph 24.2 mph N/A   Clear
12:53 PM 37.0 °F 28.1 °F 19.0 °F 48% 30.04 in 10.0 mi South 15.0 mph 26.5 mph N/A   Clear
1:53 PM 37.9 °F 27.9 °F 21.0 °F 51% 29.96 in 10.0 mi South 19.6 mph 27.6 mph N/A   Clear
2:53 PM 39.9 °F 31.4 °F 21.9 °F 49% 29.92 in 10.0 mi South 16.1 mph 28.8 mph N/A   Clear
3:53 PM 39.9 °F 32.1 °F 23.0 °F 51% 29.90 in 10.0 mi South 13.8 mph - N/A   Clear
4:53 PM 39.0 °F 29.3 °F 23.0 °F 53% 29.88 in 10.0 mi South 19.6 mph 25.3 mph N/A   Clear
5:53 PM 37.0 °F 28.1 °F 23.0 °F 57% 29.86 in 10.0 mi South 15.0 mph 25.3 mph N/A   Clear
6:53 PM 37.0 °F 27.7 °F 23.0 °F 57% 29.84 in 10.0 mi South 16.1 mph - N/A   Clear
7:53 PM 37.0 °F 29.3 °F 21.9 °F 54% 29.82 in 10.0 mi South 11.5 mph 19.6 mph N/A   Clear
8:53 PM 37.9 °F 30.0 °F 21.0 °F 51% 29.81 in 10.0 mi South 12.7 mph 19.6 mph N/A   Clear
9:53 PM 37.9 °F 27.6 °F 21.0 °F 51% 29.77 in 10.0 mi South 20.7 mph 29.9 mph N/A   Clear
10:53 PM 37.9 °F 28.5 °F 21.0 °F 51% 29.77 in 10.0 mi South 17.3 mph 26.5 mph N/A   Clear
11:53 PM 37.0 °F 28.9 °F 21.0 °F 52% 29.75 in 10.0 mi South 12.7 mph 21.9 mph N/A   Clear